This is the latest recevied weather packets stored in our database for station/object KB3KBR-WX. If no packets are shown the sender has not sent any weather packets the latest 1 day(s).
| Time | Temp. | Humidity | Pressure | Rain* | Wind** | Luminosity | Snow |
|---|---|---|---|---|---|---|---|
| 1777975409 | 16.67° C | 69% | 1002.9 hPa | 0 mm | 1.79 m/s, 161° | - | - |
| 1777975109 | 17.22° C | 69% | 1002.8 hPa | 0 mm | 2.24 m/s, 162° | - | - |
| 1777974780 | 17.22° C | 69% | 1002.8 hPa | 0 mm | 2.24 m/s, 160° | - | - |
| 1777974449 | 17.22° C | 68% | 1002.8 hPa | 0 mm | 2.68 m/s, 171° | - | - |
| 1777974149 | 17.22° C | 68% | 1002.8 hPa | 0 mm | 2.68 m/s, 171° | - | - |
| 1777973849 | 17.22° C | 68% | 1002.8 hPa | 0 mm | 2.68 m/s, 171° | - | - |
| 1777973519 | 17.22° C | 68% | 1002.8 hPa | 0 mm | 2.24 m/s, 170° | - | - |
| 1777973219 | 17.22° C | 68% | 1002.7 hPa | 0 mm | 3.13 m/s, 172° | - | - |
| 1777972919 | 17.22° C | 68% | 1002.7 hPa | 0 mm | 2.68 m/s, 172° | - | - |
| 1777972589 | 16.67° C | 69% | 1002.6 hPa | 0 mm | 2.24 m/s, 169° | - | - |
| 1777972291 | 16.67° C | 69% | 1002.6 hPa | 0 mm | 2.24 m/s, 163° | - | - |
| 1777972289 | 16.67° C | 69% | 1002.6 hPa | 0 mm | 2.24 m/s, 163° | - | - |
| 1777971961 | 16.67° C | 69% | 1002.6 hPa | 0 mm | 2.24 m/s, 163° | - | - |
| 1777971959 | 16.67° C | 69% | 1002.6 hPa | 0 mm | 2.24 m/s, 163° | - | - |
| 1777971661 | 16.67° C | 69% | 1002.7 hPa | 0 mm | 1.79 m/s, 165° | - | - |
| 1777971659 | 16.67° C | 69% | 1002.7 hPa | 0 mm | 1.79 m/s, 165° | - | - |
| 1777971329 | 16.67° C | 69% | 1002.7 hPa | 0 mm | 1.79 m/s, 160° | - | - |
| 1777971029 | 16.67° C | 69% | 1002.5 hPa | 0 mm | 1.79 m/s, 164° | - | - |
| 1777970702 | 16.67° C | 69% | 1002.7 hPa | 0 mm | 1.79 m/s, 163° | - | - |
| 1777970699 | 16.67° C | 69% | 1002.7 hPa | 0 mm | 1.79 m/s, 163° | - | - |
| 1777970369 | 16.67° C | 69% | 1002.5 hPa | 0 mm | 2.24 m/s, 165° | - | - |
| 1777970039 | 17.22° C | 68% | 1002.5 hPa | 0 mm | 2.68 m/s, 177° | - | - |
| 1777969711 | 17.22° C | 68% | 1002.6 hPa | 0 mm | 2.68 m/s, 174° | - | - |
| 1777969709 | 17.22° C | 68% | 1002.6 hPa | 0 mm | 2.68 m/s, 174° | - | - |
| 1777969379 | 17.22° C | 68% | 1002.6 hPa | 0 mm | 2.68 m/s, 165° | - | - |
* Rain latest hour (hover to see other rain measurements)
** Current wind speed in m/s (hover to see current wind gust speed)